Location: Village de las Huertas
(35.3014°N, 106.4095°W)
Time: 09:08:39
(UTC+00:00)

Cosmos 2098 Rocket - Pass Details

Date: 29 October 2020
Orbit: 366 x 1184 km, 82.9° (Epoch: 04 December)

Event Time Altitude Azimuth Distance (km) Brightness Sun altitude
Rises 12:16:56 0° 179° (S) 3,808 7.2 -14.4°
Reaches altitude 10° 12:19:43 10° 177° (S) 2,755 6.5 -13.8°
Maximum altitude 12:26:00 72° 95° (E) 895 4.0 -12.6°
Drops below altitude 10° 12:31:01 10° 11° (NNE) 2,221 5.9 -11.6°
Sets 12:33:05 0° 10° (N) 3,025 6.6 -11.1°
